When you browse on this site, cookies collect data to enhance your experience and personalize the content and advertising you see.
Visit our Privacy Policy to learn more. By continuing to use the site, you agree to this use of cookies and data.
  • In Hungary
  • List of Countries
  • For 7 days
  • Water Temperature
  • Weather Map
  • News
  • Weather Widgets
  • user-avatar
    Login

    Hourly Weather Charleston

    Today, 13 November, Wednesday

    Time Temperature Precipitation Wind Pressure Humidity
    00:00 -7°C° 0 mm 1 mps 754 mmHg 85%
    01:00 -7°C° 0 mm 0 mps 754 mmHg 86%
    02:00 -7°C° 0 mm 0 mps 754 mmHg 86%
    03:00 -8°C° 0 mm 0 mps 754 mmHg 87%
    04:00 -8°C° 0 mm 0 mps 754 mmHg 87%
    05:00 -7°C° 0 mm 0 mps 754 mmHg 86%
    06:00 -7°C° 0 mm 0 mps 755 mmHg 85%
    07:00 -7°C° 0 mm 0 mps 755 mmHg 85%
    08:00 -6°C° 0 mm 0 mps 755 mmHg 75%
    09:00 -3°C° 0 mm 1 mps 755 mmHg 65%
    10:00 -1°C° 0 mm 1 mps 754 mmHg 55%
    11:00 0°C° 0 mm 1 mps 754 mmHg 50%
    12:00 +2°C° 0 mm 1 mps 753 mmHg 45%
    13:00 +3°C° 0 mm 1 mps 752 mmHg 40%
    14:00 +3°C° 0 mm 1 mps 752 mmHg 41%
    15:00 +4°C° 0 mm 1 mps 751 mmHg 42%
    16:00 +4°C° 0 mm 1 mps 751 mmHg 43%
    17:00 +3°C° 0 mm 1 mps 751 mmHg 50%
    18:00 +1°C° 0 mm 1 mps 751 mmHg 57%
    19:00 -1°C° 0 mm 1 mps 751 mmHg 64%
    20:00 -1°C° 0 mm 1 mps 751 mmHg 65%
    21:00 -1°C° 0 mm 1 mps 751 mmHg 66%
    22:00 -1°C° 0 mm 1 mps 751 mmHg 67%
    23:00 -1°C° 0 mm 1 mps 751 mmHg 67%

    Tomorrow, 14 November, Thursday

    Time Temperature Precipitation Wind Pressure Humidity
    00:00 -1°C° 0 mm 1 mps 751 mmHg 68%
    01:00 -1°C° 0 mm 1 mps 751 mmHg 68%
    02:00 -1°C° 0 mm 1 mps 751 mmHg 67%
    03:00 -1°C° 0 mm 1 mps 750 mmHg 67%
    04:00 -1°C° 0 mm 1 mps 750 mmHg 67%
    05:00 -1°C° 0 mm 1 mps 751 mmHg 66%
    06:00 -1°C° 0 mm 1 mps 751 mmHg 65%
    07:00 -1°C° 0 mm 1 mps 752 mmHg 64%
    08:00 +1°C° 0 mm 1 mps 752 mmHg 59%
    09:00 +3°C° 0 mm 1 mps 752 mmHg 53%
    10:00 +5°C° 0 mm 1 mps 752 mmHg 48%
    11:00 +5°C° 0 mm 2 mps 751 mmHg 44%
    12:00 +7°C° 0 mm 2 mps 751 mmHg 41%
    13:00 +8°C° 0 mm 2 mps 751 mmHg 38%
    14:00 +8°C° 0 mm 2 mps 750 mmHg 43%
    15:00 +8°C° 0 mm 1 mps 750 mmHg 49%
    16:00 +8°C° 0 mm 1 mps 749 mmHg 55%
    17:00 +6°C° 0 mm 1 mps 750 mmHg 59%
    18:00 +4°C° 0 mm 1 mps 750 mmHg 63%
    19:00 +1°C° 0 mm 0 mps 751 mmHg 68%
    20:00 +1°C° 0 mm 0 mps 751 mmHg 69%
    21:00 +1°C° 0 mm 0 mps 751 mmHg 71%
    22:00 0°C° 0 mm 0 mps 751 mmHg 72%
    23:00 0°C° 0 mm 0 mps 751 mmHg 74%

    Day after tomorrow, 15 November, Friday

    Time Temperature Precipitation Wind Pressure Humidity
    00:00 0°C° 0 mm 0 mps 751 mmHg 75%
    01:00 0°C° 0 mm 0 mps 751 mmHg 76%
    02:00 0°C° 0 mm 0 mps 751 mmHg 78%
    03:00 0°C° 0 mm 0 mps 751 mmHg 79%
    04:00 -1°C° 0 mm 0 mps 751 mmHg 81%
    05:00 0°C° 0 mm 0 mps 751 mmHg 83%
    06:00 -1°C° 0 mm 0 mps 751 mmHg 85%
    07:00 -1°C° 0 mm 0 mps 751 mmHg 86%
    08:00 +1°C° 0 mm 0 mps 751 mmHg 79%
    09:00 +3°C° 0 mm 0 mps 751 mmHg 72%
    10:00 +5°C° 0 mm 0 mps 751 mmHg 65%
    11:00 +7°C° 0 mm 1 mps 751 mmHg 63%
    12:00 +8°C° 0 mm 1 mps 750 mmHg 61%
    13:00 +8°C° 0 mm 2 mps 749 mmHg 59%
    14:00 +8°C° 0 mm 2 mps 749 mmHg 63%
    15:00 +7°C° 0 mm 2 mps 749 mmHg 67%
    16:00 +7°C° 0 mm 2 mps 748 mmHg 70%
    17:00 +6°C° 0 mm 1 mps 749 mmHg 78%
    18:00 +4°C° 0 mm 1 mps 750 mmHg 86%
    19:00 +3°C° 0 mm 1 mps 751 mmHg 93%
    20:00 +2°C° 0 mm 1 mps 751 mmHg 94%
    21:00 +1°C° 0 mm 1 mps 751 mmHg 94%
    22:00 +1°C° 0 mm 1 mps 751 mmHg 95%
    23:00 0°C° 0 mm 1 mps 751 mmHg 95%

    16 November, Saturday

    Time Temperature Precipitation Wind Pressure Humidity
    00:00 -2°C° 0 mm 2 mps 751 mmHg 95%
    01:00 -2°C° 0 mm 2 mps 751 mmHg 95%
    02:00 -2°C° 0 mm 2 mps 751 mmHg 95%
    03:00 -2°C° 0 mm 2 mps 751 mmHg 95%
    04:00 -1°C° 0 mm 1 mps 751 mmHg 95%
    05:00 -2°C° 0 mm 2 mps 751 mmHg 93%
    06:00 -2°C° 0 mm 2 mps 751 mmHg 90%
    07:00 -1°C° 0 mm 2 mps 752 mmHg 88%
    08:00 +1°C° 0 mm 2 mps 751 mmHg 81%
    09:00 +1°C° 0 mm 2 mps 751 mmHg 75%
    10:00 +2°C° 0 mm 2 mps 751 mmHg 69%
    11:00 +4°C° 0 mm 2 mps 751 mmHg 65%
    12:00 +5°C° 0 mm 2 mps 750 mmHg 61%
    13:00 +6°C° 0 mm 2 mps 749 mmHg 56%
    14:00 +6°C° 0 mm 2 mps 749 mmHg 58%
    15:00 +5°C° 0 mm 2 mps 749 mmHg 60%
    16:00 +5°C° 0 mm 2 mps 749 mmHg 62%
    17:00 +5°C° 0 mm 1 mps 749 mmHg 69%
    18:00 +3°C° 0 mm 1 mps 749 mmHg 76%
    19:00 +1°C° 0 mm 1 mps 749 mmHg 83%
    20:00 +1°C° 0 mm 1 mps 749 mmHg 82%
    21:00 +1°C° 0 mm 1 mps 749 mmHg 82%
    22:00 +1°C° 0 mm 1 mps 749 mmHg 82%
    23:00 +1°C° 0 mm 1 mps 749 mmHg 81%

    17 November, Sunday

    Time Temperature Precipitation Wind Pressure Humidity
    00:00 +1°C° 0 mm 1 mps 748 mmHg 81%
    01:00 +1°C° 0 mm 1 mps 748 mmHg 81%
    02:00 0°C° 0 mm 1 mps 748 mmHg 79%
    03:00 0°C° 0 mm 1 mps 748 mmHg 77%
    04:00 0°C° 0 mm 1 mps 747 mmHg 75%
    05:00 0°C° 0 mm 1 mps 747 mmHg 72%
    06:00 0°C° 0 mm 1 mps 747 mmHg 69%
    07:00 0°C° 0 mm 1 mps 747 mmHg 65%
    08:00 +2°C° 0 mm 1 mps 747 mmHg 57%
    09:00 +4°C° 0 mm 1 mps 747 mmHg 49%
    10:00 +7°C° 0 mm 1 mps 747 mmHg 40%
    11:00 +8°C° 0 mm 1 mps 746 mmHg 41%
    12:00 +10°C° 0 mm 1 mps 745 mmHg 42%
    13:00 +11°C° 0 mm 1 mps 744 mmHg 42%
    14:00 +11°C° 0 mm 1 mps 744 mmHg 49%
    15:00 +10°C° 0 mm 1 mps 743 mmHg 55%
    16:00 +10°C° 0 mm 1 mps 743 mmHg 61%
    17:00 +8°C° 0 mm 1 mps 743 mmHg 65%
    18:00 +6°C° 0 mm 0 mps 743 mmHg 69%
    19:00 +5°C° 0 mm 0 mps 743 mmHg 73%
    20:00 +5°C° 0 mm 0 mps 743 mmHg 73%
    21:00 +5°C° 0 mm 0 mps 743 mmHg 73%
    22:00 +4°C° 0 mm 0 mps 743 mmHg 74%
    23:00 +5°C° 0 mm 1 mps 742 mmHg 75%

    18 November, Monday

    Time Temperature Precipitation Wind Pressure Humidity
    00:00 +5°C° 0 mm 1 mps 742 mmHg 77%
    01:00 +5°C° 0 mm 1 mps 742 mmHg 79%
    02:00 +4°C° 0 mm 1 mps 742 mmHg 80%
    03:00 +4°C° 0 mm 1 mps 742 mmHg 81%
    04:00 +4°C° 0 mm 1 mps 742 mmHg 83%
    05:00 +5°C° 0 mm 1 mps 742 mmHg 83%
    06:00 +5°C° 0 mm 1 mps 742 mmHg 84%
    07:00 +5°C° 0 mm 1 mps 742 mmHg 84%
    08:00 +6°C° 0 mm 1 mps 742 mmHg 81%
    09:00 +7°C° 0 mm 1 mps 742 mmHg 78%
    10:00 +8°C° 0 mm 1 mps 742 mmHg 76%
    11:00 +9°C° 0 mm 1 mps 741 mmHg 73%
    12:00 +10°C° 0 mm 1 mps 741 mmHg 71%
    13:00 +11°C° 0 mm 1 mps 740 mmHg 68%
    14:00 +11°C° 0.1 mm 1 mps 740 mmHg 71%
    15:00 +10°C° 0.1 mm 1 mps 740 mmHg 74%
    16:00 +9°C° 0.1 mm 0 mps 740 mmHg 76%
    17:00 +8°C° 0 mm 0 mps 740 mmHg 77%
    18:00 +9°C° 0 mm 1 mps 740 mmHg 78%
    19:00 +8°C° 0 mm 1 mps 740 mmHg 79%
    20:00 +8°C° 0 mm 1 mps 741 mmHg 81%
    21:00 +7°C° 0 mm 1 mps 741 mmHg 82%
    22:00 +7°C° 0 mm 1 mps 741 mmHg 83%
    23:00 +7°C° 0 mm 1 mps 741 mmHg 84%
    Show more